Location: Cantaing
(50.1487°N, 3.1675°E)
Time: 12:42:29
(UTC+00:00)

Cosmos 2082 Rocket - Pass Details

Date: 18 April 2026
Orbit: 831 x 853 km, 71.0° (Epoch: 19 May)

Event Time Altitude Azimuth Distance (km) Brightness Sun altitude
Exits shadow 00:16:36 17° 99° (E) 2,034 4.1 -28.7°
Maximum altitude 00:16:41 17° 98° (E) 2,034 4.1 -28.7°
Drops below altitude 10° 00:20:12 10° 60° (ENE) 2,490 5.1 -28.7°
Sets 00:23:30 0° 41° (NE) 3,432 6.2 -28.6°
